FDX157 KEWR-CYOW

Flight info

Callsign FDX157
Flight time 1h 5m
Altitude 25000
Route KEWR GREKI JUDDS CAM BUGSY DEANS4 CYOW
Aircraft B77L/H-SDE2E3FGHIRWY/LB1

Departure

Time 2026-04-20 18:16
Airport Newark Liberty International Airport (KEWR)

Arrival

Time 2026-04-20 19:22
Airport Ottawa Macdonald-Cartier International Airport (CYOW)
Time Latitude Longitude Altitude Speed Heading
2026-04-20 17:53 40.67939 -74.18209 33 ft 0 kts 296°
2026-04-20 18:06 40.67931 -74.18191 32 ft 3 kts 285°
2026-04-20 18:06 40.67930 -74.18163 31 ft 3 kts 235°
2026-04-20 18:06 40.67940 -74.18149 29 ft 0 kts 204°
2026-04-20 18:07 40.67939 -74.18149 29 ft 1 kts 204°
2026-04-20 18:07 40.67917 -74.18149 30 ft 6 kts 169°
2026-04-20 18:07 40.67885 -74.18107 32 ft 10 kts 126°
2026-04-20 18:08 40.67866 -74.18066 33 ft 4 kts 117°
2026-04-20 18:08 40.67870 -74.18020 33 ft 3 kts 58°
2026-04-20 18:08 40.67909 -74.17990 33 ft 10 kts 27°
2026-04-20 18:08 40.68007 -74.17925 31 ft 22 kts 26°
2026-04-20 18:09 40.68178 -74.17818 30 ft 29 kts 26°
2026-04-20 18:09 40.68385 -74.17687 32 ft 34 kts 25°
2026-04-20 18:09 40.68606 -74.17547 34 ft 26 kts 26°
2026-04-20 18:09 40.68778 -74.17436 32 ft 23 kts 26°
2026-04-20 18:10 40.68961 -74.17322 29 ft 34 kts 25°
2026-04-20 18:10 40.69126 -74.17217 27 ft 24 kts 26°
2026-04-20 18:10 40.69248 -74.17139 28 ft 21 kts 26°
2026-04-20 18:10 40.69405 -74.17039 28 ft 23 kts 26°
2026-04-20 18:11 40.69521 -74.16965 29 ft 18 kts 26°
2026-04-20 18:11 40.69621 -74.16899 28 ft 11 kts 31°
2026-04-20 18:11 40.69677 -74.16794 28 ft 18 kts 71°
2026-04-20 18:11 40.69653 -74.16634 29 ft 19 kts 120°
2026-04-20 18:12 40.69583 -74.16444 29 ft 28 kts 115°
2026-04-20 18:12 40.69500 -74.16206 31 ft 24 kts 98°
2026-04-20 18:12 40.69611 -74.16052 29 ft 28 kts 27°
2026-04-20 18:12 40.69805 -74.15919 33 ft 34 kts 27°
2026-04-20 18:13 40.69963 -74.15811 33 ft 24 kts 30°
2026-04-20 18:13 40.70007 -74.15772 33 ft 0 kts 36°
2026-04-20 18:14 40.70010 -74.15769 34 ft 3 kts 36°
2026-04-20 18:14 40.70026 -74.15753 34 ft 6 kts 36°
2026-04-20 18:14 40.70083 -74.15703 33 ft 10 kts 21°
2026-04-20 18:15 40.70120 -74.15714 31 ft 6 kts 323°
2026-04-20 18:15 40.70128 -74.15736 31 ft 2 kts 283°
2026-04-20 18:15 40.70127 -74.15739 31 ft 0 kts 273°
2026-04-20 18:15 40.70141 -74.15979 31 ft 69 kts 275°
2026-04-20 18:16 40.70211 -74.16992 32 ft 151 kts 275°
2026-04-20 18:16 40.70417 -74.18611 433 ft 193 kts 298°
2026-04-20 18:16 40.71402 -74.19731 1869 ft 197 kts 340°
2026-04-20 18:16 40.72900 -74.19754 2708 ft 244 kts 12°
2026-04-20 18:17 40.74407 -74.18505 3871 ft 271 kts 43°
2026-04-20 18:17 40.75434 -74.16310 5257 ft 297 kts 68°
2026-04-20 18:17 40.75923 -74.13598 6831 ft 307 kts 71°
2026-04-20 18:17 40.77008 -74.11293 8697 ft 298 kts 42°
2026-04-20 18:18 40.78521 -74.09299 9944 ft 317 kts 44°
2026-04-20 18:18 40.80052 -74.07124 11205 ft 327 kts 44°
2026-04-20 18:18 40.81636 -74.04917 12588 ft 333 kts 44°
2026-04-20 18:18 40.83298 -74.02685 13553 ft 356 kts 43°
2026-04-20 18:19 40.85042 -74.00378 14997 ft 348 kts 42°
2026-04-20 18:19 40.86986 -73.98479 16235 ft 349 kts 20°
2026-04-20 18:19 40.89252 -73.97347 17452 ft 351 kts 18°
2026-04-20 18:19 40.91355 -73.95604 18533 ft 364 kts 39°
2026-04-20 18:20 40.93184 -73.93220 19487 ft 372 kts 44°
2026-04-20 18:20 40.94966 -73.90760 20375 ft 377 kts 44°
2026-04-20 18:20 40.96811 -73.88247 21262 ft 383 kts 43°
2026-04-20 18:20 40.98694 -73.85731 22156 ft 388 kts 42°
2026-04-20 18:21 41.00625 -73.83195 23018 ft 393 kts 41°
2026-04-20 18:21 41.02728 -73.80862 23827 ft 396 kts 34°
2026-04-20 18:21 41.04900 -73.78567 24413 ft 406 kts 38°
2026-04-20 18:21 41.07082 -73.76090 24738 ft 421 kts 37°
2026-04-20 18:22 41.09415 -73.73595 24879 ft 440 kts 35°
2026-04-20 18:22 41.11862 -73.71015 24945 ft 456 kts 37°
2026-04-20 18:22 41.14321 -73.68290 24960 ft 466 kts 38°
2026-04-20 18:22 41.16850 -73.65507 24966 ft 476 kts 37°
2026-04-20 18:23 41.19449 -73.62731 24960 ft 485 kts 36°
2026-04-20 18:23 41.22089 -73.59859 24961 ft 494 kts 37°
2026-04-20 18:23 41.24742 -73.56915 25104 ft 499 kts 37°
2026-04-20 18:23 41.27442 -73.53973 25175 ft 504 kts 37°
2026-04-20 18:24 41.30180 -73.51022 25207 ft 510 kts 37°
2026-04-20 18:24 41.32928 -73.47991 25210 ft 515 kts 38°
2026-04-20 18:24 41.35697 -73.44915 25211 ft 520 kts 37°
2026-04-20 18:24 41.38509 -73.41863 25210 ft 524 kts 37°
2026-04-20 18:25 41.41343 -73.38783 25231 ft 528 kts 37°
2026-04-20 18:25 41.44159 -73.35637 25209 ft 525 kts 38°
2026-04-20 18:25 41.46912 -73.32554 25185 ft 521 kts 38°
2026-04-20 18:25 41.49628 -73.29361 25196 ft 522 kts 44°
2026-04-20 18:26 41.52097 -73.25770 25207 ft 526 kts 44°
2026-04-20 18:26 41.54768 -73.22424 25211 ft 527 kts 39°
2026-04-20 18:26 41.57458 -73.19100 25215 ft 527 kts 43°
2026-04-20 18:26 41.59969 -73.15537 25213 ft 527 kts 46°
2026-04-20 18:27 41.62543 -73.12059 25193 ft 524 kts 37°
2026-04-20 18:27 41.65608 -73.09481 25197 ft 519 kts 21°
2026-04-20 18:27 41.69016 -73.08069 25215 ft 511 kts
2026-04-20 18:27 41.72530 -73.07879 25227 ft 503 kts 351°
2026-04-20 18:28 41.75937 -73.08821 25251 ft 497 kts 340°
2026-04-20 18:28 41.79237 -73.10179 25243 ft 497 kts 338°
2026-04-20 18:28 41.82541 -73.11548 25218 ft 498 kts 340°
2026-04-20 18:28 41.85883 -73.12757 25205 ft 498 kts 342°
2026-04-20 18:29 41.89250 -73.13852 25200 ft 497 kts 343°
2026-04-20 18:29 41.92628 -73.14898 25202 ft 498 kts 343°
2026-04-20 18:29 41.96003 -73.15922 25198 ft 498 kts 343°
2026-04-20 18:29 41.99399 -73.16933 25208 ft 499 kts 345°
2026-04-20 18:30 42.02869 -73.17447 25191 ft 503 kts 353°
2026-04-20 18:30 42.06329 -73.17935 25192 ft 500 kts 347°
2026-04-20 18:30 42.09752 -73.18779 25198 ft 499 kts 346°
2026-04-20 18:30 42.13202 -73.19469 25193 ft 502 kts 350°
2026-04-20 18:31 42.16681 -73.19900 25194 ft 503 kts 352°
2026-04-20 18:31 42.20116 -73.20394 25196 ft 501 kts 348°
2026-04-20 18:31 42.23552 -73.21133 25183 ft 499 kts 347°
2026-04-20 18:31 42.27033 -73.21798 25188 ft 501 kts 350°
2026-04-20 18:32 42.30463 -73.22263 25179 ft 501 kts 351°
2026-04-20 18:32 42.33916 -73.22862 25188 ft 501 kts 348°
2026-04-20 18:32 42.37371 -73.23574 25188 ft 501 kts 348°
2026-04-20 18:32 42.40827 -73.24136 25202 ft 501 kts 351°
2026-04-20 18:33 42.44293 -73.24654 25180 ft 499 kts 349°
2026-04-20 18:33 42.47733 -73.25312 25179 ft 498 kts 348°
2026-04-20 18:33 42.51161 -73.25973 25178 ft 500 kts 349°
2026-04-20 18:33 42.54621 -73.26504 25185 ft 501 kts 351°
2026-04-20 18:34 42.58080 -73.27071 25209 ft 500 kts 349°
2026-04-20 18:34 42.61529 -73.27753 25224 ft 499 kts 348°
2026-04-20 18:34 42.64971 -73.28372 25207 ft 499 kts 350°
2026-04-20 18:34 42.68413 -73.28894 25209 ft 498 kts 350°
2026-04-20 18:35 42.71857 -73.29504 25212 ft 498 kts 348°
2026-04-20 18:35 42.75287 -73.30187 25221 ft 498 kts 349°
2026-04-20 18:35 42.78682 -73.30762 25220 ft 496 kts 351°
2026-04-20 18:35 42.82111 -73.31288 25228 ft 495 kts 350°
2026-04-20 18:36 42.85527 -73.31935 25222 ft 494 kts 349°
2026-04-20 18:36 42.88935 -73.32598 25220 ft 495 kts 350°
2026-04-20 18:36 42.92361 -73.33140 25203 ft 496 kts 351°
2026-04-20 18:36 42.95788 -73.33713 25202 ft 495 kts 349°
2026-04-20 18:37 42.99184 -73.34491 25205 ft 494 kts 346°
2026-04-20 18:37 43.02483 -73.35740 25203 ft 489 kts 336°
2026-04-20 18:37 43.05604 -73.37285 25199 ft 459 kts 340°
2026-04-20 18:37 43.08559 -73.38397 25164 ft 424 kts 341°
2026-04-20 18:38 43.11261 -73.39612 25159 ft 393 kts 336°
2026-04-20 18:38 43.13758 -73.40879 25206 ft 377 kts 337°
2026-04-20 18:38 43.16250 -73.41995 25211 ft 377 kts 340°
2026-04-20 18:38 43.18760 -73.43049 25094 ft 378 kts 339°
2026-04-20 18:39 43.21272 -73.44199 24454 ft 380 kts 338°
2026-04-20 18:39 43.23722 -73.45352 23857 ft 374 kts 339°
2026-04-20 18:39 43.26175 -73.46436 23089 ft 367 kts 339°
2026-04-20 18:39 43.28594 -73.47493 22281 ft 362 kts 339°
2026-04-20 18:40 43.30960 -73.48581 21510 ft 356 kts 338°
2026-04-20 18:40 43.33301 -73.49668 20752 ft 352 kts 338°
2026-04-20 18:40 43.35616 -73.50705 20004 ft 348 kts 338°
2026-04-20 18:40 43.37907 -73.51721 19286 ft 344 kts 338°
2026-04-20 18:41 43.40161 -73.52751 18593 ft 340 kts 337°
2026-04-20 18:41 43.42387 -73.53782 17837 ft 335 kts 337°
2026-04-20 18:41 43.44591 -73.54783 17084 ft 331 kts 338°
2026-04-20 18:41 43.46774 -73.55757 16358 ft 327 kts 338°
2026-04-20 18:42 43.48198 -73.56400 15848 ft 325 kts 337°
2026-04-20 18:42 43.50339 -73.57386 15093 ft 322 kts 337°
2026-04-20 18:42 43.52451 -73.58358 14396 ft 318 kts 337°
2026-04-20 18:42 43.54546 -73.59307 13626 ft 316 kts 337°
2026-04-20 18:43 43.56621 -73.60252 12914 ft 312 kts 337°
2026-04-20 18:43 43.58669 -73.61191 12204 ft 309 kts 338°
2026-04-20 18:43 43.60702 -73.62122 11533 ft 305 kts 338°
2026-04-20 18:43 43.62711 -73.63036 10832 ft 303 kts 339°
2026-04-20 18:44 43.64703 -73.63945 10158 ft 301 kts 339°
2026-04-20 18:44 43.66671 -73.64843 9486 ft 296 kts 339°
2026-04-20 18:44 43.68616 -73.65733 8878 ft 290 kts 339°
2026-04-20 18:44 43.70521 -73.66613 8215 ft 287 kts 339°
2026-04-20 18:45 43.72403 -73.67479 7602 ft 282 kts 339°
2026-04-20 18:45 43.74270 -73.68340 6921 ft 282 kts 340°
2026-04-20 18:45 43.76107 -73.69178 6349 ft 276 kts 340°
2026-04-20 18:45 43.77933 -73.70012 5606 ft 283 kts 340°
2026-04-20 18:46 43.79798 -73.70871 5223 ft 277 kts 340°
2026-04-20 18:46 43.81595 -73.71697 5063 ft 270 kts 340°
2026-04-20 18:46 43.83395 -73.72529 5000 ft 275 kts 340°
2026-04-20 18:46 43.85198 -73.73362 4975 ft 272 kts 339°
2026-04-20 18:47 43.86964 -73.74177 4966 ft 273 kts 339°
2026-04-20 18:47 43.88767 -73.75015 4956 ft 275 kts 339°
2026-04-20 18:47 43.90564 -73.75842 4940 ft 269 kts 339°
2026-04-20 18:47 43.92350 -73.76662 4919 ft 271 kts 339°
2026-04-20 18:48 43.94156 -73.77498 4964 ft 272 kts 339°
2026-04-20 18:48 43.95945 -73.78325 4970 ft 269 kts 339°
2026-04-20 18:48 43.97742 -73.79158 4957 ft 274 kts 339°
2026-04-20 18:48 43.99634 -73.80040 4971 ft 303 kts 339°
2026-04-20 18:49 44.01622 -73.80955 4971 ft 303 kts 339°
2026-04-20 18:49 44.03630 -73.81881 5844 ft 299 kts 339°
2026-04-20 18:49 44.05612 -73.82811 6464 ft 305 kts 339°
2026-04-20 18:49 44.07642 -73.83766 6726 ft 310 kts 339°
2026-04-20 18:50 44.09710 -73.84718 6843 ft 311 kts 339°
2026-04-20 18:50 44.11762 -73.85655 6861 ft 309 kts 339°
2026-04-20 18:50 44.13805 -73.86622 6923 ft 308 kts 338°
2026-04-20 18:50 44.15831 -73.87574 6891 ft 306 kts 339°
2026-04-20 18:51 44.17856 -73.88501 6857 ft 309 kts 340°
2026-04-20 18:51 44.19898 -73.89452 6945 ft 308 kts 339°
2026-04-20 18:51 44.21913 -73.90405 6940 ft 308 kts 339°
2026-04-20 18:51 44.23952 -73.91370 6929 ft 308 kts 339°
2026-04-20 18:52 44.25959 -73.92294 6922 ft 305 kts 339°
2026-04-20 18:52 44.28002 -73.93241 6946 ft 321 kts 339°
2026-04-20 18:52 44.30212 -73.94290 6986 ft 341 kts 339°
2026-04-20 18:52 44.32447 -73.95335 6961 ft 339 kts 339°
2026-04-20 18:53 44.34693 -73.96386 6947 ft 337 kts 339°
2026-04-20 18:53 44.36917 -73.97426 6924 ft 337 kts 339°
2026-04-20 18:53 44.39138 -73.98479 6963 ft 338 kts 339°
2026-04-20 18:53 44.41360 -73.99527 6961 ft 335 kts 339°
2026-04-20 18:54 44.43587 -74.00565 6944 ft 337 kts 339°
2026-04-20 18:54 44.45807 -74.01605 6961 ft 338 kts 339°
2026-04-20 18:54 44.48029 -74.02659 6937 ft 337 kts 339°
2026-04-20 18:54 44.50249 -74.03719 6908 ft 335 kts 339°
2026-04-20 18:55 44.52462 -74.04758 6929 ft 336 kts 339°
2026-04-20 18:55 44.54687 -74.05803 6932 ft 336 kts 339°
2026-04-20 18:55 44.56901 -74.06843 6917 ft 335 kts 340°
2026-04-20 18:55 44.59122 -74.07903 6929 ft 337 kts 339°
2026-04-20 18:56 44.61344 -74.08963 6931 ft 335 kts 339°
2026-04-20 18:56 44.63565 -74.10008 6924 ft 338 kts 339°
2026-04-20 18:56 44.65788 -74.11058 6929 ft 336 kts 339°
2026-04-20 18:56 44.68003 -74.12105 6923 ft 337 kts 339°
2026-04-20 18:57 44.70072 -74.13543 6913 ft 333 kts 320°
2026-04-20 18:57 44.71574 -74.15976 6969 ft 326 kts 303°
2026-04-20 18:57 44.72792 -74.18662 6972 ft 328 kts 301°
2026-04-20 18:57 44.73980 -74.21435 6974 ft 334 kts 300°
2026-04-20 18:58 44.75158 -74.24214 6923 ft 325 kts 300°
2026-04-20 18:58 44.76322 -74.26960 5946 ft 336 kts 300°
2026-04-20 18:58 44.77480 -74.29765 5454 ft 326 kts 298°
2026-04-20 18:58 44.78466 -74.32593 5182 ft 318 kts 294°
2026-04-20 18:59 44.79286 -74.35336 5048 ft 290 kts 293°
2026-04-20 18:59 44.80068 -74.37803 4981 ft 264 kts 295°
2026-04-20 18:59 44.80850 -74.40031 4953 ft 246 kts 296°
2026-04-20 18:59 44.81596 -74.42201 4997 ft 247 kts 295°
2026-04-20 19:00 44.82291 -74.44350 4993 ft 239 kts 294°
2026-04-20 19:00 44.82974 -74.46498 5006 ft 239 kts 295°
2026-04-20 19:00 44.83666 -74.48602 5012 ft 235 kts 295°
2026-04-20 19:00 44.84366 -74.50683 5002 ft 235 kts 295°
2026-04-20 19:01 44.85068 -74.52794 5010 ft 245 kts 295°
2026-04-20 19:01 44.85772 -74.54965 5015 ft 244 kts 294°
2026-04-20 19:01 44.86476 -74.57137 5005 ft 242 kts 295°
2026-04-20 19:01 44.87185 -74.59290 5007 ft 244 kts 295°
2026-04-20 19:02 44.87901 -74.61455 4977 ft 248 kts 295°
2026-04-20 19:02 44.88627 -74.63671 4982 ft 248 kts 295°
2026-04-20 19:02 44.89342 -74.65867 4980 ft 246 kts 295°
2026-04-20 19:02 44.90051 -74.68050 4976 ft 242 kts 295°
2026-04-20 19:03 44.90662 -74.70262 4978 ft 242 kts 279°
2026-04-20 19:03 44.90697 -74.72643 5017 ft 248 kts 269°
2026-04-20 19:03 44.90581 -74.75077 5026 ft 250 kts 266°
2026-04-20 19:03 44.90429 -74.77493 5008 ft 249 kts 266°
2026-04-20 19:04 44.90239 -74.79915 5004 ft 244 kts 264°
2026-04-20 19:04 44.89937 -74.82289 5004 ft 247 kts 259°
2026-04-20 19:04 44.89522 -74.84623 4986 ft 244 kts 258°
2026-04-20 19:04 44.89128 -74.86938 4987 ft 249 kts 260°
2026-04-20 19:05 44.88776 -74.89328 4956 ft 246 kts 260°
2026-04-20 19:05 44.88429 -74.91720 4466 ft 253 kts 260°
2026-04-20 19:05 44.88096 -74.94129 4234 ft 244 kts 269°
2026-04-20 19:05 44.88173 -74.96484 4161 ft 249 kts 278°
2026-04-20 19:06 44.88394 -74.98933 4129 ft 253 kts 279°
2026-04-20 19:06 44.88634 -75.01356 4155 ft 244 kts 279°
2026-04-20 19:06 44.88876 -75.03724 4122 ft 248 kts 279°
2026-04-20 19:06 44.89131 -75.06107 4109 ft 242 kts 281°
2026-04-20 19:07 44.89488 -75.08422 4099 ft 241 kts 286°
2026-04-20 19:07 44.89933 -75.10700 4099 ft 242 kts 287°
2026-04-20 19:07 44.90357 -75.12967 4087 ft 232 kts 285°
2026-04-20 19:07 44.90701 -75.15090 4057 ft 213 kts 284°
2026-04-20 19:08 44.91010 -75.17052 4077 ft 196 kts 284°
2026-04-20 19:08 44.91626 -75.20610 4128 ft 177 kts 285°
2026-04-20 19:08 44.91935 -75.22326 4185 ft 186 kts 285°
2026-04-20 19:09 44.92237 -75.24075 4209 ft 180 kts 284°
2026-04-20 19:09 44.92512 -75.25773 4161 ft 177 kts 284°
2026-04-20 19:09 44.92789 -75.27460 4148 ft 177 kts 285°
2026-04-20 19:09 44.93093 -75.29189 4122 ft 185 kts 285°
2026-04-20 19:10 44.93397 -75.30945 4078 ft 183 kts 285°
2026-04-20 19:10 44.93694 -75.32703 3635 ft 185 kts 284°
2026-04-20 19:10 44.93982 -75.34443 3298 ft 179 kts 285°
2026-04-20 19:10 44.94272 -75.36155 3117 ft 179 kts 285°
2026-04-20 19:11 44.94565 -75.37854 3098 ft 175 kts 287°
2026-04-20 19:11 44.95092 -75.39378 3030 ft 176 kts 308°
2026-04-20 19:11 44.96081 -75.40404 3019 ft 180 kts 335°
2026-04-20 19:11 44.97320 -75.40667 2996 ft 185 kts
2026-04-20 19:12 44.98556 -75.40108 3033 ft 189 kts 22°
2026-04-20 19:12 44.99810 -75.39742 2983 ft 183 kts 346°
2026-04-20 19:12 45.00940 -75.40455 3032 ft 179 kts 331°
2026-04-20 19:12 45.02102 -75.41014 3035 ft 180 kts 340°
2026-04-20 19:13 45.03312 -75.41527 3029 ft 181 kts 340°
2026-04-20 19:13 45.04512 -75.42066 3000 ft 181 kts 338°
2026-04-20 19:13 45.05700 -75.42628 2999 ft 181 kts 338°
2026-04-20 19:13 45.06900 -75.43107 2995 ft 182 kts 345°
2026-04-20 19:14 45.08157 -75.43383 3039 ft 183 kts 349°
2026-04-20 19:14 45.09433 -75.43547 3022 ft 185 kts 352°
2026-04-20 19:14 45.10703 -75.43654 2990 ft 182 kts 354°
2026-04-20 19:14 45.11982 -75.43724 2999 ft 185 kts 354°
2026-04-20 19:15 45.13267 -75.43792 2997 ft 184 kts 354°
2026-04-20 19:15 45.14527 -75.43924 2989 ft 171 kts 349°
2026-04-20 19:15 45.15609 -75.44137 2905 ft 151 kts 347°
2026-04-20 19:15 45.16631 -75.44388 2952 ft 147 kts 344°
2026-04-20 19:16 45.17630 -75.44697 2978 ft 148 kts 342°
2026-04-20 19:16 45.18631 -75.45033 2986 ft 149 kts 342°
2026-04-20 19:16 45.19630 -75.45391 2987 ft 148 kts 341°
2026-04-20 19:16 45.20583 -75.45912 2950 ft 145 kts 317°
2026-04-20 19:17 45.21262 -75.46913 2985 ft 146 kts 319°
2026-04-20 19:17 45.22068 -75.47771 3024 ft 144 kts 319°
2026-04-20 19:17 45.22767 -75.48780 2995 ft 145 kts 308°
2026-04-20 19:17 45.23361 -75.49945 2987 ft 145 kts 302°
2026-04-20 19:18 45.23875 -75.51106 2791 ft 132 kts 301°
2026-04-20 19:18 45.24338 -75.52211 2205 ft 131 kts 300°
2026-04-20 19:18 45.24873 -75.53420 1835 ft 141 kts 303°
2026-04-20 19:18 45.25425 -75.54571 1965 ft 145 kts 304°
2026-04-20 19:19 45.26011 -75.55747 1993 ft 144 kts 305°
2026-04-20 19:19 45.26568 -75.56849 1814 ft 130 kts 306°
2026-04-20 19:19 45.27092 -75.57878 1349 ft 141 kts 306°
2026-04-20 19:19 45.27671 -75.58978 1332 ft 137 kts 306°
2026-04-20 19:20 45.28276 -75.60091 1224 ft 140 kts 307°
2026-04-20 19:20 45.28876 -75.61172 1080 ft 149 kts 307°
2026-04-20 19:20 45.29610 -75.62468 1133 ft 179 kts 308°
2026-04-20 19:20 45.30266 -75.63786 829 ft 149 kts 300°
2026-04-20 19:21 45.30805 -75.65027 529 ft 155 kts 305°
2026-04-20 19:21 45.31407 -75.66135 393 ft 126 kts 306°
2026-04-20 19:21 45.31878 -75.67025 392 ft 97 kts 306°
2026-04-20 19:21 45.32227 -75.67699 391 ft 77 kts 306°
2026-04-20 19:22 45.32479 -75.68197 390 ft 52 kts 306°
2026-04-20 19:22 45.32646 -75.68440 392 ft 17 kts 357°
2026-04-20 19:22 45.32728 -75.68382 393 ft 0 kts 36°
2026-04-20 19:24 45.32730 -75.68379 393 ft 3 kts 36°
2026-04-20 19:24 45.32761 -75.68327 392 ft 8 kts 76°
2026-04-20 19:24 45.32725 -75.68205 391 ft 19 kts 124°
2026-04-20 19:25 45.32632 -75.68024 391 ft 27 kts 126°
2026-04-20 19:25 45.32501 -75.67774 394 ft 34 kts 126°
2026-04-20 19:25 45.32368 -75.67516 394 ft 34 kts 126°
2026-04-20 19:25 45.32254 -75.67268 394 ft 22 kts 100°
2026-04-20 19:26 45.32186 -75.67060 389 ft 25 kts 126°
2026-04-20 19:26 45.32066 -75.66829 394 ft 34 kts 127°
2026-04-20 19:26 45.31945 -75.66597 395 ft 23 kts 126°
2026-04-20 19:26 45.31880 -75.66429 396 ft 11 kts 81°
2026-04-20 19:27 45.31933 -75.66304 394 ft 17 kts 48°
2026-04-20 19:27 45.32012 -75.66114 393 ft 28 kts 61°
2026-04-20 19:27 45.32136 -75.65840 392 ft 35 kts 56°
2026-04-20 19:27 45.32240 -75.65607 391 ft 26 kts 57°
2026-04-20 19:28 45.32311 -75.65447 391 ft 31 kts 57°
2026-04-20 19:28 45.32435 -75.65175 391 ft 29 kts 57°
2026-04-20 19:28 45.32469 -75.65100 391 ft 4 kts 57°
2026-04-20 19:28 45.32505 -75.65056 390 ft 7 kts 18°
2026-04-20 19:29 45.32520 -75.65058 390 ft 1 kts 344°
2026-04-20 19:29 45.32527 -75.65059 390 ft 1 kts
2026-04-20 19:29 45.32556 -75.65014 389 ft 12 kts 56°
2026-04-20 19:29 45.32620 -75.64926 388 ft 11 kts 18°
2026-04-20 19:30 45.32643 -75.64915 388 ft 5 kts 19°
2026-04-20 19:30 45.32648 -75.64913 388 ft 0 kts 19°